Regional Weather Roundup
Issued by NWS Mt. Holly, NJ

Home | Current Version | Previous Version | Text Only | Print | Product List | Glossary On
Versions: 1 2 3 4 5 6 7 8 9 10 11 12 13 14 15 16 17 18 19 20 21 22 23 24 25 26 27 28 29 30 31 32 33 34 35 36 37 38 39 40 41 42 43 44 45 46 47 48 49 50
000
ASUS41 KPHI 302212
RWRPHI

REGIONAL WEATHER ROUNDUP
NATIONAL WEATHER SERVICE MOUNT HOLLY NJ
600 PM EDT SAT JUL 30 2016

NOTE:  "FAIR" INDICATES FEW OR NO CLOUDS BELOW 12,000 FEET WITH NO
SIGNIFICANT WEATHER AND/OR OBSTRUCTIONS TO VISIBILITY.

 * = STATION DOES NOT REPORT PRECIPITATION (E.G. RAIN, SNOW, ETC.)
        OR FOG.

NJZ015>026-302300-
SOUTHERN NEW JERSEY

CITY           SKY/WX    TMP DP  RH WIND       PRES   REMARKS
POMONA         MOSUNNY   80  70  71 S13       30.00R
WILDWOOD*        N/A    N/A N/A N/A MISG        N/A
MILLVILLE      CLOUDY    81  70  69 S7        29.98R
WRIGHTSTOWN    LGT RAIN  79  70  73 E6        29.97R
MOUNT HOLLY    LGT RAIN  78  71  79 SE3       29.98R
TRENTON        LGT RAIN  73  71  93 NE6       29.99R FOG

$$
NJZ001>014-302300-
NORTHERN NEW JERSEY

CITY           SKY/WX    TMP DP  RH WIND       PRES   REMARKS
SUSSEX         HVY RAIN  70  69  97 N3        30.05R FOG
ANDOVER*         N/A     70  69  97 CALM      30.05R
MORRISTOWN     LGT RAIN  72  70  94 CALM      30.03S
NEWARK         HVY RAIN  75  73  93 S5        30.01R FOG
TETERBORO      LGT RAIN  76  71  85 S7        30.01S
CALDWELL       LGT RAIN  74  72  93 W5        30.03R FOG
SOMERVILLE     LGT RAIN  72  69  90 N3        30.00S
TOMS RIVER*    CLOUDY    79  73  82 SE3       30.01R

$$
PAZ043-044-047-054-055-060>062-066>071-302300-
EASTERN PENNSYLVANIA

CITY           SKY/WX    TMP DP  RH WIND       PRES   REMARKS
PHILADELPHIA   LGT RAIN  79  71  76 S8        29.98S
NORTH PHILA    LGT RAIN  82  72  71 S6        29.99R
BLUE BELL*     CLOUDY    77  70  78 S6        29.98S
DOYLESTOWN     CLOUDY    71  71 100 VRB3      30.00R
QUAKERTOWN*    CLOUDY    73  73 100 CALM      30.01S
PERKASIE*      LGT RAIN  72  72 100 NE9       30.01F
POTTSTOWN      LGT RAIN  73  71  93 E5        30.00S
LANCASTER      LGT RAIN  71  71 100 NE7       29.97S FOG
COATESVILLE    LGT RAIN  72  72 100 NE3       30.00F
READING        HVY RAIN  72  70  93 CALM      29.98R FOG
ALLENTOWN      LGT RAIN  73  70  90 NE8       30.00F
MOUNT POCONO   LGT RAIN  66  64  93 NE3       30.09R
HAZLETON       RAIN      68  66  94 CALM      30.07S
LEHIGHTON      RAIN      70  70 100 CALM      30.02R
WILKES BARRE   RAIN      69  67  93 NE3       30.03S FOG

$$
DEZALL-MDZ008-012-015-019-020-302300-
DELAWARE AND EASTERN MARYLAND

CITY           SKY/WX    TMP DP  RH WIND       PRES   REMARKS
WILMINGTON     RAIN      76  70  82 E5        29.98R
DOVER          MOSUNNY   83  74  73 SE14      29.95R HX  90
GEORGETOWN     CLOUDY    82  69  64 S13       29.98R
EASTON         PTSUNNY   84  72  65 S16G23    29.99R
PATUXENT       CLOUDY    82  72  71 S10G21    29.95R
OCEAN CITY     CLOUDY    81  72  74 S6        29.98R
WALLOPS ISLAND FAIR      80  73  79 S12       29.98R
CAMBRIDGE      CLOUDY    81  63  54 S13       29.96R

$$
PAZ001-021-NYZ056-072-MDZ011-DCZ001-302300-
OTHER NEARBY LOCATIONS

CITY           SKY/WX    TMP DP  RH WIND       PRES   REMARKS
HARRISBURG     LGT RAIN  74  73  97 SE8       29.94F
STATE COLLEGE  CLOUDY    72  68  88 NE10      29.98S FOG
WILLIAMSPORT   CLOUDY    73  68  84 E8        29.96F
BINGHAMTON     LGT RAIN  65  64  97 E8        30.05R
NEW YORK CITY  LGT RAIN  74  72  93 CALM      30.04F FOG
BALTIMORE      CLOUDY    81  71  71 SE7       29.92R THUNDER
WASHINGTON DC  CLOUDY    84  73  69 S20       29.92R HX  90

$$



USA.gov is the U.S. government's official web portal to all federal, state and local government web resources and services.